Location: Dos Palmas
(32.4468°N, 116.8732°W)
Time: 04:21:21
(UTC+00:00)

FALCON 9 DEB - Pass Details

Date: 20 June 2021
Orbit: 358 x 373 km, 53.0° (Epoch: 29 July)

Event Time Altitude Azimuth Distance (km) Brightness Sun altitude
Rises 03:36:01 0° 215° (SW) 2,229 6.8 -7.8°
Reaches altitude 10° 03:38:03 10° 212° (SSW) 1,384 5.7 -8.1°
Maximum altitude 03:41:06 60° 131° (SE) 440 2.8 -8.6°
Drops below altitude 10° 03:44:11 10° 51° (NE) 1,397 5.5 -9.2°
Sets 03:46:16 0° 48° (NE) 2,253 6.6 -9.5°
